Dewpoint
10 10 10 10 10 10 10 10 10 9 9 9 10 10 10 9 9 9 9 8 8 6 5 4 3 0 -1 -4 -7 -12 -19 -23 -13 -7 -11 -13 -12 -13 -12 -14 -15 -15 -13 -15 -16 -13 -11
7 6 9 10 10 10 10 10 10 10 10 10 10 10 9 9 9 9 9 8 8 7 6 5 2 -7 -3 -2 -10 -12 -12 -5 -7 -9 -13 -15 -16 -15 -14 -15 -13 -14 -14 -12 -14 -13 -14
-5 -5 -3 8 9 10 8 10 10 10 10 10 10 10 10 10 9 9 9 8 8 7 6 6 1 -10 -2 -2 -7 -9 -10 -13 -10 -11 -11 -10 -9 -8 -13 -13 -14 -14 -13 -16 -17 -17 -16
-8 -6 -6 -5 -2 1 8 10 10 10 10 10 10 10 10 10 9 9 9 9 8 7 7 5 -5 -8 -1 -5 -8 -11 -13 -11 -11 -12 -10 -10 -10 -11 -12 -13 -11 -12 -12 -10 -15 -14 -16
-17 -14 -10 -7 -6 -3 -2 4 8 9 9 10 10 10 10 10 9 9 9 8 8 7 6 3 -5 1 -1 -8 -10 -8 -10 -14 -11 -9 -9 -9 -10 -12 -12 -8 -9 -12 -9 -9 -13 -15 -15
-11 -18 -17 -11 -9 -6 -4 2 2 -0 5 9 9 9 9 9 9 8 8 8 7 5 3 1 1 0 -3 -11 -7 -9 -6 -11 -12 -9 -9 -9 -12 -10 -10 -10 -8 -8 -10 -12 -12 -14 -15
-5 -12 -16 -13 -6 -4 -5 0 6 6 2 4 6 9 9 9 8 8 7 7 2 3 2 1 -1 -2 -7 -6 -7 -10 -4 -5 -11 -12 -9 -11 -9 -8 -10 -10 -11 -10 -9 -10 -13 -16 -15
3 -2 -10 -2 4 4 2 -1 1 6 6 3 6 8 8 8 7 8 7 6 -2 1 2 0 -2 -3 -4 -7 -7 -8 -9 -10 -9 -8 -10 -9 -6 -9 -12 -12 -9 -8 -10 -11 -13 -15 -13
2 3 -0 -4 3 5 5 4 3 5 6 5 4 7 8 7 7 7 6 5 4 1 -0 0 -1 -3 -4 -7 -7 -10 -9 -11 -11 -9 -10 -9 -8 -12 -12 -11 -9 -10 -11 -11 -11 -12 -14
1 2 3 -1 -3 3 4 5 4 4 7 6 6 6 7 7 6 6 6 5 1 -2 4 -0 -6 -9 -9 -8 -9 -10 -13 -9 -11 -11 -11 -11 -13 -12 -12 -10 -11 -10 -13 -13 -11 -11 -9
0 1 2 2 1 -2 1 3 5 4 5 6 6 6 4 6 6 5 3 3 -2 1 5 -6 -10 -11 -10 -12 -12 -12 -14 -15 -13 -12 -12 -10 -13 -10 -11 -12 -12 -10 -12 -11 -11 -10 -9
0 -0 0 1 1 2 -1 0 1 4 5 6 6 6 5 6 6 6 4 1 -1 3 5 -4 -9 -8 -9 -12 -12 -13 -13 -13 -12 -12 -12 -10 -12 -12 -12 -13 -12 -13 -11 -10 -10 -9 -6
-3 -0 0 -0 -0 0 1 -1 -0 -0 5 6 6 6 5 5 5 5 2 -1 4 5 -6 -5 -7 -9 -9 -9 -11 -12 -11 -10 -9 -7 -7 -10 -10 -12 -11 -10 -11 -10 -7 -4 -3 -4 -4
-2 -3 -1 -1 -1 -2 -1 -1 -2 -0 3 6 6 6 6 5 5 4 2 1 6 -3 -3 -10 -10 -9 -7 -9 -10 -10 -10 -9 -11 -10 -8 -6 -4 -10 -11 -9 -10 -11 -8 -5 -3 -4 -7
-2 -3 -3 -4 -2 -3 -3 -3 -2 -1 1 5 6 4 6 5 4 3 0 5 2 -0 -4 -8 -10 -7 -7 -8 -9 -9 -8 -8 -10 -9 -6 -8 -9 -12 -10 -11 -10 -11 -9 -10 -6 -7 -5
-4 -5 -3 -3 -4 -4 -5 -3 -2 -2 1 4 5 3 2 4 3 -0 3 5 1 -3 -8 -9 -6 -7 -5 -7 -7 -8 -8 -10 -10 -10 -11 -9 -7 -12 -13 -11 -10 -9 -12 -6 -6 -2 -2
-5 -3 -5 -4 -3 -4 -4 -6 -1 -1 2 4 4 1 1 1 -0 1 4 2 -1 -7 -10 -8 -7 -7 -7 -7 -8 -7 -10 -11 -10 -9 -11 -12 -7 -9 -11 -10 -9 -10 -7 -8 -7 -2 1
-8 -7 -7 -6 -4 -5 -4 -4 -1 0 3 4 1 1 -0 -0 0 0 3 0 -3 -7 -11 -10 -9 -9 -8 -9 -9 -9 -9 -11 -10 -11 -7 -10 -5 -4 -9 -13 -11 -10 -8 -7 -1 -3 -0
-6 -8 -8 -6 -6 -5 -6 -5 -3 1 3 2 -0 -2 -1 -0 3 2 -1 -1 -4 -7 -10 -10 -9 -9 -10 -9 -8 -9 -8 -8 -9 -8 -9 -8 -6 -4 -6 -6 -4 -1 -4 -8 -4 -0 1
-6 -5 -5 -6 -6 -6 -6 -7 -4 0 3 2 -1 -0 -1 -1 0 1 1 -1 -3 -8 -9 -10 -10 -10 -8 -9 -9 -6 -7 -6 -7 -9 -6 -5 -3 -1 -2 -1 -4 -2 -3 -3 -3 0 -1
-5 -5 -5 -5 -4 -5 -6 -10 -6 -0 2 2 -0 0 -2 0 0 1 -0 -2 -3 -6 -10 -10 -8 -8 -9 -7 -7 -5 -8 -6 -5 -5 -5 -6 -2 -1 -4 -5 -6 -4 -2 -2 2 0 3
-5 -5 -5 -5 -5 -5 -5 -7 -7 0 2 2 1 1 -2 -2 -2 0 1 -1 -2 -6 -7 -7 -8 -9 -8 -6 -7 -7 -7 -5 -3 -7 -5 -5 -2 0 -0 -3 -2 1 0 -1 1 1 -0
-4 -4 -4 -5 -5 -3 -3 -5 -7 0 2 2 2 0 -1 -1 -1 1 1 -1 -3 -5 -8 -9 -9 -7 -6 -7 -10 -10 -9 -7 -5 -3 -4 -2 1 1 2 -2 -1 3 2 0 1 -1 1
-2 -2 -2 -4 -4 -0 -3 -5 -6 0 2 2 2 -0 -0 1 -0 -1 -2 -3 -5 -4 3 -7 -7 -6 -6 -6 -6 -5 -5 -5 -4 -4 -3 2 3 1 2 0 3 1 -1 -1 0 -1 -2
-1 -1 -1 -1 -2 -1 -4 -4 -4 1 2 2 1 -1 0 1 -2 -2 -3 -5 -7 -6 -5 -3 -7 -6 -3 -4 -3 -2 -1 0 -1 -3 -3 1 2 3 3 1 1 -0 -1 -1 0 -1 -2
-2 -1 -0 -1 -0 -2 -2 -2 -1 -0 2 2 0 -0 -0 0 -1 -4 -5 -7 -4 -1 -3 -4 -2 -2 -3 -3 -2 1 1 -1 1 0 -3 -1 1 2 2 1 2 -0 -3 -4 -4 2 -5
4 2 -0 -0 -0 -0 -1 0 0 2 2 1 1 1 -0 0 -4 -6 -5 -2 -3 -5 -5 -3 -2 -2 -3 -2 1 1 -0 -3 1 1 2 3 3 3 1 2 1 -4 -5 -4 2 1 -5
1 1 -0 -0 -1 -1 -0 2 2 1 1 1 1 1 1 0 -1 -1 -3 -5 -7 -7 -4 -4 -3 -3 -3 -1 -0 -1 -0 0 0 -1 -0 1 3 3 0 3 4 -5 -4 -1 -2 -4 -4
1 1 1 1 1 1 1 1 1 0 -0 1 0 -0 -1 -2 -2 -3 -4 -5 -5 -7 -7 -4 -4 -4 -4 -3 -3 -1 -0 -0 -0 0 -3 1 -0 2 -0 -0 -4 -4 -2 -4 -4 -4 -4
Wind_Speed
26 27 30 29 30 31 29 27 26 26 23 21 22 21 19 18 19 17 18 17 17 17 17 19 17 17 19 9 11 15 14 9 6 4 7 8 10 12 15 13 12 14 17 21 17 18 18
37 37 33 26 32 30 30 28 27 25 24 23 23 23 22 21 20 19 16 17 19 18 17 19 19 15 9 10 7 12 5 6 7 7 8 9 11 11 14 18 16 18 15 18 18 19 19
32 33 33 38 37 35 37 32 27 27 24 22 20 21 23 24 22 22 19 16 18 18 19 20 19 16 11 15 7 8 9 8 9 10 10 8 8 10 7 12 11 13 18 18 20 20 16
28 29 31 34 35 35 34 31 28 28 23 26 23 23 25 22 24 23 19 18 17 18 20 19 16 9 10 11 10 12 11 11 11 11 11 7 8 11 14 14 14 18 19 18 16 4 10
27 26 26 28 30 34 34 36 37 37 30 26 26 20 23 22 24 21 20 17 17 17 18 17 10 7 11 6 3 3 8 12 11 11 11 10 11 16 13 11 15 16 17 19 14 14 7
27 27 26 26 25 27 30 31 33 34 32 29 23 21 20 20 20 20 19 17 16 16 12 7 8 8 8 3 4 5 6 10 10 12 12 14 12 13 13 12 15 18 17 16 12 11 13
24 25 25 24 23 24 25 28 28 29 30 31 28 22 22 19 17 15 15 11 5 5 11 12 10 15 10 5 4 5 6 8 13 16 16 17 14 15 17 17 17 16 18 21 21 17 20
20 22 21 22 21 21 21 23 28 24 23 23 24 23 23 21 15 14 13 7 7 6 12 19 23 23 21 11 9 12 10 11 16 16 18 15 17 17 18 14 13 16 20 22 22 20 11
23 21 21 22 23 20 20 19 20 22 20 18 19 25 23 21 16 19 15 11 9 5 9 18 23 22 18 18 17 18 17 18 17 16 18 20 16 7 7 15 15 17 19 20 21 19 21
28 27 24 22 22 24 20 20 19 24 19 18 18 21 22 18 19 19 16 10 6 1 5 13 8 7 11 10 9 21 16 18 15 18 16 18 18 16 19 16 15 20 14 17 14 15 17
29 31 31 27 23 23 25 23 20 21 22 20 21 25 21 20 19 19 10 12 8 3 6 6 8 8 9 14 8 9 11 16 20 18 11 17 11 11 15 17 14 16 12 10 16 18 20
30 31 32 32 28 25 23 22 23 22 22 22 24 24 22 25 26 16 12 16 14 3 11 7 8 9 12 15 8 7 10 10 7 13 14 16 3 8 12 11 8 12 11 16 18 17 17
37 33 32 34 32 30 26 23 21 21 23 22 24 24 24 26 30 21 19 22 3 7 3 8 7 11 14 8 10 10 11 13 9 10 14 18 17 13 5 14 12 11 13 11 13 12 16
36 36 37 34 34 34 30 26 23 20 22 23 24 25 27 31 30 28 29 3 8 11 22 2 3 10 15 9 10 10 9 13 10 10 9 10 12 15 11 14 15 15 14 12 19 15 17
41 40 38 38 34 34 30 29 25 20 20 18 29 42 37 35 30 33 23 5 8 16 15 8 9 12 13 8 5 11 15 14 12 12 8 8 12 3 3 8 6 7 14 12 17 18 16
44 43 40 37 38 34 32 28 27 21 20 27 44 38 32 33 37 41 3 8 13 10 6 14 17 15 15 16 11 9 10 5 8 5 3 4 8 11 8 6 14 14 10 6 7 6 12
49 45 45 42 37 35 31 30 28 22 24 38 32 15 25 46 42 15 5 12 14 11 13 12 16 14 14 11 14 14 6 6 5 9 7 7 7 6 4 10 15 12 12 13 13 11 9
53 49 48 45 41 38 34 31 31 26 30 44 26 4 40 47 9 5 12 11 11 13 14 8 8 12 10 10 11 12 10 6 9 6 6 9 5 11 16 11 9 14 16 15 11 13 7
53 51 47 45 41 39 38 34 35 31 44 43 18 9 40 32 7 14 13 17 11 14 17 12 10 9 7 10 8 10 4 5 6 10 6 6 7 7 8 7 10 9 14 14 9 9 15
54 51 50 48 45 43 41 39 40 38 53 42 13 5 9 17 13 14 20 16 17 19 14 13 10 9 10 8 9 5 8 6 9 13 3 2 8 9 11 10 5 5 7 9 12 11 14
51 52 52 49 46 47 44 44 46 44 60 44 12 7 18 11 13 13 17 15 21 12 15 17 10 16 13 11 13 11 9 8 7 10 7 8 10 10 15 16 15 13 12 12 11 15 10
58 57 55 53 50 50 47 49 50 50 63 35 16 9 24 14 28 19 19 16 23 19 17 20 12 14 12 14 11 7 13 11 8 12 13 12 7 7 11 16 15 15 15 13 9 8 5
61 60 58 55 53 52 53 51 54 53 71 28 31 25 27 19 22 17 19 20 23 17 15 18 14 12 13 12 7 4 8 14 6 9 13 10 5 6 7 3 4 7 9 8 3 3 5
61 61 62 61 58 54 55 55 55 58 74 36 32 25 13 7 17 22 23 22 20 18 8 10 15 14 4 8 6 4 6 10 10 10 11 6 7 6 5 4 8 4 4 4 5 4 7
63 58 58 59 60 59 57 59 58 62 81 43 35 35 10 6 20 23 21 20 20 16 9 12 12 8 13 13 6 6 5 4 12 16 14 8 5 4 4 9 6 8 7 7 7 6 6
76 67 59 62 53 54 56 59 60 59 81 48 38 28 20 10 17 30 23 27 14 14 11 13 10 12 13 6 4 6 7 8 7 6 16 12 12 9 5 7 3 9 11 6 6 6 11
36 67 70 58 58 52 47 55 50 69 71 45 40 22 17 8 13 30 21 23 26 18 10 18 15 10 11 6 6 8 7 4 6 9 8 4 4 14 12 8 4 6 7 6 5 5 12
49 59 67 57 47 47 53 53 66 68 51 45 36 23 20 10 22 26 26 31 26 19 10 19 10 8 9 7 6 5 3 2 3 2 5 8 5 7 10 6 5 3 7 4 6 12 14
57 55 53 52 53 63 68 70 67 57 47 42 31 26 28 20 23 21 20 16 12 14 14 26 3 21 9 8 4 2 2 2 3 3 4 4 3 4 5 4 5 4 9 12 12 16 16
Wind_Direction
256 251 254 256 252 254 255 256 258 258 257 257 261 263 268 272 284 290 304 308 309 313 316 320 323 331 337 311 295 273 291 267 248 232 242 245 258 261 267 273 274 262 262 277 274 274 269
262 262 258 249 248 263 266 263 258 256 256 258 258 260 263 267 274 280 297 302 304 306 317 320 318 324 323 290 280 274 264 245 233 247 250 244 254 273 283 276 277 281 296 284 280 269 274
261 260 257 255 254 252 267 263 259 264 259 258 259 259 256 262 265 272 280 284 294 301 312 316 312 313 285 267 275 269 272 249 249 241 248 243 252 252 290 276 291 275 279 273 265 256 260
256 256 255 253 254 256 250 254 254 259 258 263 261 264 258 261 263 269 283 289 291 295 305 311 303 295 261 279 264 261 258 254 241 236 234 239 240 259 267 267 269 260 264 271 272 46 253
258 259 259 258 256 255 255 255 254 259 263 264 258 269 270 267 267 270 278 283 289 298 305 309 301 250 284 263 292 273 234 232 232 232 235 231 238 245 250 250 262 244 257 275 277 179 252
260 258 258 258 260 261 256 255 255 256 254 252 250 263 261 266 268 270 273 282 292 298 304 302 265 253 251 266 231 243 246 219 218 221 231 230 230 235 224 241 257 278 289 287 257 263 226
262 260 257 257 257 259 256 252 254 257 254 251 254 252 259 255 257 263 271 283 287 250 212 229 284 251 279 265 241 239 211 203 215 227 229 214 234 240 245 259 264 278 282 277 280 282 280
268 265 257 249 250 257 259 254 249 252 260 256 247 242 247 252 259 256 249 229 252 281 292 256 256 255 254 252 263 231 209 212 208 230 223 244 234 259 272 276 280 277 273 272 276 275 282
247 259 258 247 243 252 254 252 246 239 247 252 246 243 240 248 252 239 243 233 254 290 269 280 247 250 247 234 239 238 204 223 241 240 250 254 258 309 293 276 255 255 265 276 284 305 291
249 250 251 252 247 243 245 247 243 240 241 242 243 234 238 231 231 231 225 230 223 93 289 262 201 246 194 206 245 225 227 226 235 249 262 265 273 282 266 249 264 274 280 292 298 279 282
254 249 251 249 250 248 244 244 245 243 240 234 236 237 235 228 227 205 211 205 161 112 278 89 135 152 160 190 118 183 209 228 244 242 225 253 249 240 257 265 265 273 293 283 287 286 290
260 255 250 250 246 248 245 242 242 240 235 233 233 234 218 230 217 215 198 158 131 181 241 165 146 178 176 202 199 140 191 221 250 257 247 252 296 278 269 286 262 278 282 267 266 264 262
253 255 251 249 247 243 243 240 239 238 230 230 234 227 223 223 216 202 172 134 179 219 88 177 187 180 199 184 187 206 194 208 223 218 232 236 235 233 244 258 239 235 266 274 269 246 255
257 254 251 250 248 245 243 239 237 235 225 230 235 224 217 216 214 195 162 131 216 230 227 90 192 190 210 181 217 209 225 239 212 264 277 270 269 228 181 244 272 279 241 257 283 291 297
255 258 255 252 248 244 241 237 233 232 226 229 219 191 205 209 202 181 142 208 222 243 254 174 193 207 205 188 270 213 229 245 248 193 248 298 254 115 221 251 233 272 242 267 285 280 269
255 257 254 252 249 246 239 233 226 224 223 227 197 191 191 192 176 164 223 219 223 228 255 180 209 209 228 197 205 204 198 213 218 226 211 268 267 262 258 233 251 253 285 266 217 262 252
256 253 254 247 246 242 240 226 221 215 218 204 187 158 181 164 160 170 216 217 225 193 216 217 230 246 234 229 198 222 250 122 198 172 218 263 239 267 215 231 253 217 234 244 265 265 279
254 250 251 244 241 238 235 223 215 210 206 196 164 131 164 164 145 210 222 213 227 197 208 212 261 236 226 211 207 237 233 233 166 183 215 219 277 261 263 267 255 268 270 210 229 251 300
249 248 242 237 237 234 229 220 212 209 206 178 140 121 164 176 175 203 220 216 220 205 196 207 212 212 226 209 227 221 206 79 184 205 231 163 232 263 233 211 229 248 237 258 244 275 273
245 242 239 236 235 230 226 218 210 209 202 180 138 127 172 214 243 231 205 202 201 213 207 210 202 187 200 197 211 229 219 165 198 221 74 272 252 264 271 317 314 242 197 241 251 256 273
244 240 239 236 231 226 222 215 208 207 195 185 164 168 181 192 214 225 196 198 200 192 212 188 188 207 203 212 228 223 219 163 203 211 208 228 260 258 274 279 276 273 264 248 252 260 268
245 243 237 235 233 223 221 213 206 203 195 188 170 168 173 204 192 210 194 204 197 186 193 194 209 199 205 232 235 222 220 185 201 198 215 195 246 324 285 267 254 255 252 247 250 232 273
244 239 237 232 230 225 215 209 204 201 191 197 203 190 175 155 179 191 198 201 200 168 194 191 201 212 218 227 236 245 214 208 220 187 201 213 231 235 257 323 279 251 188 209 158 173 275
238 237 233 228 223 220 209 205 202 200 200 194 191 172 188 170 177 193 197 198 194 168 150 187 217 214 160 140 139 177 218 222 221 208 200 200 204 257 279 202 236 95 89 165 141 104 131
227 227 223 218 218 208 204 202 200 200 199 189 187 179 171 166 191 189 190 184 164 163 174 204 191 160 150 156 188 183 202 226 233 221 217 192 231 271 257 232 122 167 176 168 192 161 159
227 216 208 204 199 194 196 196 197 197 194 192 179 186 183 158 199 181 178 174 160 175 154 164 142 148 162 196 185 230 208 217 159 179 207 216 221 252 287 254 257 112 140 158 171 191 183
195 194 191 191 187 192 191 189 191 187 187 184 177 177 149 120 169 168 173 168 181 171 169 162 155 170 193 189 215 234 228 197 184 181 168 194 194 222 238 258 111 103 135 159 232 111 159
128 161 177 180 189 187 187 185 179 178 175 169 164 151 174 117 153 166 179 180 178 177 162 158 159 192 185 205 224 215 229 157 249 100 161 207 216 196 228 246 203 144 154 231 118 131 146
117 134 149 160 165 159 160 163 166 165 160 161 143 137 131 117 122 137 129 157 175 181 172 167 199 170 182 215 230 104 148 188 192 214 156 216 320 355 3 42 94 72 92 118 134 134 135
Height
1503 1503 1506 1508 1510 1512 1514 1515 1516 1518 1518 1519 1521 1521 1521 1521 1521 1520 1521 1520 1519 1517 1516 1514 1512 1510 1510 1511 1508 1502 1503 1502 1503 1503 1504 1503 1503 1501 1495 1490 1490 1489 1488 1486 1487 1489 1487
1495 1498 1497 1500 1502 1504 1504 1508 1509 1509 1513 1514 1516 1517 1517 1518 1518 1517 1517 1518 1518 1515 1514 1512 1511 1509 1509 1507 1503 1503 1502 1502 1503 1503 1503 1502 1501 1499 1496 1494 1491 1488 1489 1486 1484 1485 1485
1487 1490 1491 1493 1495 1498 1500 1502 1503 1504 1506 1508 1510 1511 1512 1513 1513 1515 1514 1514 1515 1512 1511 1510 1509 1507 1506 1501 1498 1502 1499 1502 1503 1503 1502 1500 1501 1501 1493 1491 1489 1491 1489 1482 1479 1476 1478
1482 1482 1482 1485 1488 1490 1494 1495 1497 1499 1501 1503 1505 1507 1507 1508 1508 1510 1510 1511 1511 1510 1508 1507 1508 1506 1500 1495 1494 1495 1498 1499 1500 1501 1501 1500 1500 1498 1495 1492 1491 1488 1482 1476 1462 1472 1477
1476 1476 1477 1478 1480 1482 1484 1488 1490 1494 1495 1498 1501 1501 1502 1504 1504 1506 1507 1507 1508 1507 1505 1504 1505 1507 1496 1491 1491 1493 1495 1497 1496 1500 1501 1498 1499 1495 1491 1489 1481 1473 1473 1466 1458 1465 1473
1469 1469 1471 1473 1473 1475 1478 1481 1484 1484 1488 1492 1494 1497 1498 1500 1501 1503 1503 1504 1504 1502 1501 1502 1504 1508 1495 1492 1491 1491 1493 1494 1494 1497 1500 1498 1494 1488 1483 1480 1475 1464 1457 1452 1459 1458 1460
1461 1463 1464 1467 1467 1470 1470 1475 1477 1480 1481 1484 1487 1492 1494 1496 1497 1497 1501 1502 1506 1502 1499 1496 1493 1490 1490 1490 1489 1489 1489 1492 1493 1493 1490 1487 1486 1478 1469 1466 1464 1466 1470 1468 1459 1457 1459
1455 1457 1457 1460 1462 1465 1465 1467 1472 1475 1477 1477 1482 1485 1488 1493 1495 1495 1497 1498 1503 1500 1492 1490 1487 1486 1487 1488 1488 1486 1488 1489 1489 1485 1483 1481 1478 1474 1469 1466 1470 1474 1472 1465 1457 1455 1458
1447 1451 1453 1453 1456 1460 1460 1461 1464 1469 1471 1473 1476 1481 1481 1489 1492 1492 1494 1495 1498 1499 1495 1480 1478 1478 1481 1486 1481 1479 1483 1483 1480 1481 1477 1472 1466 1469 1473 1471 1472 1471 1470 1466 1463 1459 1457
1441 1444 1446 1447 1449 1453 1455 1457 1457 1465 1465 1468 1472 1474 1479 1482 1490 1490 1490 1493 1495 1500 1495 1468 1472 1471 1474 1479 1476 1475 1478 1483 1478 1477 1475 1468 1466 1470 1469 1472 1472 1467 1463 1463 1465 1468 1461
1432 1435 1439 1440 1442 1445 1449 1451 1453 1458 1461 1462 1467 1469 1472 1478 1479 1486 1486 1491 1496 1499 1492 1458 1470 1470 1471 1473 1472 1474 1479 1481 1476 1471 1477 1467 1465 1471 1471 1467 1467 1467 1467 1471 1469 1468 1466
1423 1426 1429 1432 1436 1438 1441 1444 1447 1452 1454 1458 1460 1463 1469 1474 1476 1480 1484 1489 1495 1501 1480 1457 1462 1466 1469 1468 1469 1474 1478 1478 1474 1472 1467 1467 1467 1469 1465 1466 1471 1472 1472 1471 1469 1467 1465
1413 1418 1420 1422 1427 1431 1433 1438 1441 1445 1447 1451 1454 1458 1464 1467 1472 1476 1483 1489 1498 1478 1454 1451 1457 1461 1461 1465 1467 1470 1471 1472 1467 1473 1467 1461 1461 1466 1471 1471 1469 1474 1474 1467 1460 1451 1443
1404 1407 1409 1413 1417 1422 1424 1431 1436 1439 1441 1445 1449 1453 1458 1462 1468 1471 1476 1490 1480 1444 1446 1452 1455 1458 1459 1459 1464 1467 1465 1464 1464 1467 1465 1466 1467 1457 1461 1468 1464 1461 1464 1464 1459 1449 1436
1394 1397 1400 1403 1408 1412 1417 1423 1430 1433 1437 1438 1444 1443 1450 1456 1462 1468 1473 1477 1451 1445 1441 1451 1456 1456 1455 1458 1465 1465 1465 1461 1458 1461 1468 1464 1458 1461 1468 1468 1471 1463 1464 1464 1465 1460 1455
1383 1386 1389 1393 1398 1403 1408 1415 1423 1426 1432 1429 1436 1443 1445 1452 1458 1465 1469 1458 1446 1445 1443 1445 1449 1446 1445 1452 1465 1460 1458 1459 1462 1469 1471 1470 1473 1459 1464 1470 1471 1472 1465 1470 1469 1470 1450
1370 1374 1378 1383 1388 1393 1400 1407 1415 1420 1424 1427 1434 1442 1445 1449 1457 1468 1456 1440 1442 1444 1448 1446 1442 1441 1443 1442 1452 1453 1458 1463 1468 1470 1474 1471 1474 1464 1468 1466 1465 1460 1468 1469 1462 1458 1447
1355 1359 1365 1370 1377 1383 1391 1398 1406 1413 1417 1424 1429 1438 1446 1448 1455 1460 1447 1441 1442 1440 1447 1448 1447 1439 1445 1445 1453 1455 1458 1461 1469 1469 1475 1473 1473 1467 1458 1455 1457 1457 1453 1456 1464 1455 1449
1338 1344 1350 1357 1364 1373 1379 1389 1397 1405 1405 1416 1423 1436 1444 1447 1439 1440 1438 1437 1439 1440 1443 1446 1445 1445 1449 1448 1457 1455 1462 1467 1472 1474 1473 1473 1471 1471 1455 1458 1459 1458 1454 1452 1455 1460 1455
1321 1328 1335 1343 1351 1360 1369 1378 1387 1394 1401 1408 1420 1432 1444 1441 1436 1427 1430 1431 1435 1439 1440 1442 1442 1449 1454 1453 1456 1457 1459 1470 1473 1474 1477 1478 1476 1470 1452 1467 1456 1458 1454 1455 1455 1458 1446
1304 1312 1319 1327 1337 1347 1356 1366 1376 1384 1392 1400 1408 1415 1416 1427 1431 1429 1428 1425 1430 1434 1438 1441 1445 1448 1449 1451 1451 1456 1460 1468 1476 1477 1477 1479 1475 1470 1465 1463 1458 1456 1455 1455 1461 1457 1461
1284 1292 1302 1312 1321 1332 1342 1353 1363 1374 1384 1393 1395 1400 1410 1406 1424 1429 1425 1421 1425 1430 1434 1438 1441 1446 1448 1449 1448 1453 1458 1465 1471 1471 1474 1473 1476 1474 1470 1456 1453 1454 1454 1455 1463 1466 1470
1261 1270 1282 1293 1305 1317 1328 1340 1352 1364 1373 1376 1386 1390 1401 1398 1412 1418 1412 1417 1419 1427 1436 1439 1443 1444 1445 1447 1451 1455 1455 1461 1462 1465 1468 1472 1475 1472 1455 1447 1452 1454 1458 1461 1466 1468 1468
1235 1246 1260 1274 1288 1301 1314 1327 1340 1351 1357 1366 1377 1385 1392 1392 1398 1401 1408 1414 1417 1428 1438 1440 1441 1441 1446 1451 1456 1459 1460 1459 1461 1463 1465 1471 1475 1466 1451 1453 1446 1463 1464 1463 1466 1469 1469
1207 1221 1237 1254 1270 1286 1302 1316 1328 1339 1352 1364 1372 1380 1382 1388 1395 1401 1403 1410 1421 1431 1436 1439 1440 1443 1448 1453 1454 1454 1458 1463 1456 1459 1462 1468 1470 1460 1451 1435 1451 1461 1463 1463 1465 1469 1471
1167 1192 1218 1241 1260 1276 1292 1306 1321 1335 1349 1361 1367 1376 1378 1383 1387 1392 1399 1410 1420 1429 1435 1438 1445 1446 1449 1449 1450 1447 1436 1433 1440 1450 1455 1461 1466 1467 1445 1435 1426 1444 1453 1458 1460 1460 1469
1136 1162 1209 1233 1255 1272 1288 1303 1316 1329 1343 1353 1366 1373 1373 1384 1386 1390 1395 1405 1418 1421 1425 1437 1442 1447 1449 1443 1449 1434 1425 1423 1430 1434 1447 1458 1459 1454 1444 1436 1444 1452 1458 1461 1456 1462 1467
1153 1180 1214 1235 1254 1270 1286 1299 1313 1326 1340 1349 1363 1366 1376 1379 1393 1398 1405 1407 1410 1414 1419 1430 1439 1441 1444 1440 1433 1423 1425 1429 1429 1430 1434 1436 1438 1438 1435 1432 1432 1460 1460 1457 1463 1465 1468
1191 1208 1226 1242 1257 1271 1284 1297 1312 1326 1337 1352 1360 1367 1372 1382 1392 1397 1400 1406 1411 1415 1418 1426 1425 1428 1431 1428 1422 1424 1432 1437 1429 1429 1439 1441 1440 1440 1445 1449 1462 1463 1461 1463 1465 1467 1472